SPTNSCIP

Guest
Details From SPTN - Coronel Carlos Ciriani Santa Rosa Intl
To SCIP - Mataveri Intl
Flight Number -
Tags Generated
Created
Modified
Stats Distance 2,229 nm / 4,128 km
Max Altitude 0 ft / 0 m
Waypoints 3
Social Downloads 0
Likes 0
Share VATSIM

Download

Looking for another format? Having issues loading an existing format? Contact us
Advertisement - Login to hide

Notes

Generated

Route

SPTN IPA SCIP

ID Type Via Altitude Latitude Longitude Leg Dist Tot Dist Heading (true) Name
O SPTN APT - 0 ft / 0 m -18.06393˚ -70.27976˚ - 0 nm - -
IPA NDB - 0 ft / 0 m -27.15400˚ -109.42117˚ 2227 nm 2227 nm 249° / 264° ISLA DE PASCUA NDB
O SCIP APT - 0 ft / 0 m -27.15796˚ -109.43667˚ 0 nm 2228 nm 254° / 254° -

Altitude Profile

Advertisement - Login to hide

Weather


0- 5 10 15 20 25 30 35+ Temperature / ° C

Clouds and Precipitation
Forecast for 2018-05-22 18:00 UTC. Updated an hour ago

Ground ~20,000 ft ~40,000 ft Winds

SPTN

Details ICAO SPTN (TCQ)
Name CORONEL CARLOS CIRIANI SANTA ROSA INTL
Region Peru
Timezone America/Lima (UTC-5.0)
Stats Elevation 1,538 ft / 469 m (AMSL)
Location -18.053286° -70.275821°
Runways 1
Magnetic Variation 5.723° W

METAR

SPTN 221800Z 21008KT 180V240 CAVOK 23/15 Q1014 RMK PP000

Decode

TAF

TAF SPTN 221650Z 2218/2318 23008KT CAVOK TX24/2219Z TN13/CMG 2308/2310 13005KT 5000 BR BKN004 BKN120 TEMPO 2310/2312 2000 OVC002 FM231400 17008KT 7000 SCT020 SCT150

Decode

Departure Runways

ID Width Length Bearing (true) Bearing (mag) Surface Threshold Offset Overrun Length
02 148 ft / 45 m 8,234 ft / 2,510 m 19.37° 25.09° Asphalt 0 ft / 0 m 195 ft / 59 m
20 148 ft / 45 m 8,234 ft / 2,510 m 199.36° 205.08° Asphalt 0 ft / 0 m 195 ft / 59 m

SCIP

Details ICAO SCIP (IPC)
Name Mataveri Intl
Region Chile
Timezone Pacific/Easter (UTC-6.0)
Stats Elevation 227 ft / 69 m (AMSL)
Location -27.164790° -109.421829°
Runways 1
Magnetic Variation 15.089° E

METAR

SCIP 221800Z 32017KT 9999 SCT015 BKN040 19/16 Q1013 NOSIG

Decode

TAF

TAF TAF SCIP 221656Z 2218/2318 32012KT 9999 SCT020 BKN050 TX23/2220Z TN19/2312Z TEMPO 2219/2222 31017KT 7000 -SHRA BKN020 BECMG 2300/2302 30017KT 5000 SHRA SCT015 BKN030 TEMPO 2303/2309 28022G32KT 3000 TSRA/SHRA FEW007CB SCT012 OVC020 08KT

Decode

Destination Runways

ID Width Length Bearing (true) Bearing (mag) Surface Threshold Offset Overrun Length
10 145 ft / 44 m 10,848 ft / 3,306 m 117.35° 102.26° Asphalt 0 ft / 0 m 355 ft / 108 m
28 145 ft / 44 m 10,848 ft / 3,306 m 297.33° 282.24° Asphalt 0 ft / 0 m 95 ft / 29 m

Approach Navaids

Runway Type Ident Frequency Range Bearing (true) Bearing (mag) Slope Elevation
10 Localiser IIPA 110.30 MHz 18 nm / 33 km 119.21° 104.12° - 127 ft / 39 m (AMSL)
10 Glidescope IIPA 110.30 MHz 10 nm / 19 km 117.34° 102.25° 2.50° 148 ft / 45 m (AMSL)

Popular Alternatives